Tracking 30509 objects as of 21-May-2025
HD Live streaming from Space Station
objects crossing your sky now

STARLINK-1585

Track STARLINK-1585 now!
10-day predictions
STARLINK-1585 is classified as:


NORAD ID: 46117
Int'l Code: 2020-057A
Perigee: 553.5 km
Apogee: 555.2 km
Inclination: 53.1 °
Period: 95.6 minutes
Semi major axis: 6925 km
RCS: Unknown
Launch date: August 18, 2020
Source: United States (US)
Launch site: AIR FORCE EASTERN TEST RANGE (AFETR)
Your satellite tracking list
Your tracking list is empty




NASA's NSSDC Master Catalog

Two Line Element Set (TLE):
1 46117U 20057A   25140.36407721 -.00000040  00000-0  16189-4 0  9999
2 46117  53.0541 173.4092 0001221  91.7955 268.3173 15.06396860262135
Source of the keplerian elements: AFSPC